Location: Unspecified
(47.9110°N, 14.3980°E)
Time: 00:26:22
(UTC+00:00)

Daily predictions for brighter satellites

Satellite Brightness Start Highest point End
(mag) Time Altitude Azimuth Time Altitude Azimuth Time Altitude Azimuth
Cosmos 841 Rocket 4.1 00:00:06 10° NNW 00:05:12 55° ENE 00:09:56 12° SE
Cosmos 1934 Rocket 4.1 00:00:41 10° NNW 00:07:01 73° W 00:10:47 26° S
Lacrosse 5 rocket 0.9 00:06:47 10° WNW 00:10:10 52° SW 00:10:26 50° SSW
Cosmos 2263 Rocket 3.7 00:05:21 10° NNW 00:10:30 36° NE 00:15:38 10° ESE
IDEFIX/ARIANE 42P 3.7 00:05:46 10° NNE 00:10:31 34° E 00:13:49 17° SSE
Cosmos 1980 Rocket 3.9 00:07:02 13° SE 00:10:31 22° E 00:14:47 10° NE
Cosmos 407 Rocket 4.0 00:10:24 24° SW 00:13:17 52° WNW 00:18:20 10° NNE
Cosmos 332 Rocket 4.0 00:13:26 30° S 00:15:39 59° ESE 00:20:20 10° NNE
Cosmos 405 Rocket 1.9 00:15:22 60° SSW 00:15:48 79° W 00:18:48 10° N
Cosmos 1809 Rocket 4.5 00:14:17 25° S 00:18:04 80° E 00:24:15 10° NNE
Cosmos 371 Rocket 4.3 00:15:57 20° WSW 00:18:50 38° WNW 00:23:21 10° N
Cosmos 374 Rocket 4.1 00:18:43 35° SW 00:20:16 89° ESE 00:24:04 10° NE
Cosmos 2221 Rocket 4.3 00:20:58 22° SSE 00:23:33 48° E 00:27:55 10° NNE
MINOTAUR IV R/B 4.5 00:19:36 10° NNW 00:24:03 87° ENE 00:27:06 20° SSE
SL-4 R/B 1.4 00:21:51 10° WNW 00:25:01 75° NNE 00:28:08 10° ESE
Cosmos 1656 4.3 00:26:06 19° WSW 00:29:51 48° NW 00:35:16 10° NNE
Cosmos 1378 Rocket 3.8 00:29:06 30° SW 00:30:59 54° WNW 00:35:12 10° N
USA 308 2.6 00:28:14 10° WNW 00:32:05 89° SSW 00:36:18 10° ESE
ATLAS 3B R/B 3.2 00:27:14 23° SSW 00:32:16 64° ESE 00:40:03 10° NE
BREEZE-M DEB (TANK) 3.8 00:17:10 10° WNW 00:33:12 59° SW 00:37:05 10° SE
Cosmos 1455 Rocket 4.0 00:31:26 10° N 00:35:37 44° ENE 00:39:36 11° SSE
Cosmos 1954 Rocket 3.9 00:33:31 26° SSW 00:36:27 85° WNW 00:41:38 10° NNE
Sich 1 Rocket 3.8 00:32:11 10° N 00:36:43 73° ENE 00:39:53 19° SSE
CENTAUR R/B 3.4 00:28:35 10° NW 00:36:51 64° WSW 00:46:11 10° SSE
Cosmos 1190 Rocket 4.1 00:36:41 25° SW 00:39:46 69° WNW 00:44:59 10° NNE
CZ-2D R/B 4.5 00:37:27 10° NE 00:40:39 16° E 00:43:49 10° SE
BREEZE-M DEB (TANK) 4.1 00:22:16 10° W 00:40:42 82° N 00:45:00 10° E
Cosmos 1727 Rocket 4.5 00:36:45 15° SSE 00:41:41 55° E 00:47:42 10° NNE
CZ-4C R/B 4.2 00:38:31 10° N 00:41:46 33° WNW 00:43:14 23° WSW
NOSS 2-2 (E) 4.1 00:41:58 10° WNW 00:45:33 37° SW 00:47:58 22° S
Nimbus 7 Rocket 4.4 00:41:39 10° NNE 00:47:34 79° ESE 00:51:43 20° S
Cosmos 292 Rocket 3.8 00:48:07 24° S 00:50:57 74° ESE 00:55:41 10° NNE
ISS -1.7 00:52:07 16° SSE 00:52:41 16° SE 00:54:51 10° E
Meteor 1-27 4.3 00:47:47 10° N 00:53:37 83° E 00:59:10 12° SSE
Cosmos 2100 Rocket 4.4 00:52:58 10° N 00:59:11 64° ENE 01:05:17 10° SSE
Cosmos 1674 Rocket 4.4 01:01:31 21° SW 01:03:59 38° WNW 01:08:07 10° N
Cosmos 1697 Rocket 2.8 01:00:28 20° SW 01:04:24 72° WNW 01:10:02 10° NNE
ACS3 Solar Sail 3.4 01:04:25 10° NNW 01:08:19 20° WNW 01:12:18 10° WSW
Meteor 2-16 Rocket 4.5 01:03:38 16° S 01:08:32 85° E 01:14:39 10° N
Cosmos 1025 Rocket 4.0 01:08:07 19° SW 01:10:38 36° WNW 01:14:40 10° N
FENGYUN 3A 3.7 01:07:53 10° NNE 01:13:17 87° ESE 01:17:35 16° SSW
Cosmos 2227 Rocket 2.3 01:09:43 10° NW 01:15:16 58° WSW 01:20:46 10° S
SL-19 R/B 4.0 01:12:47 10° SSE 01:15:52 63° ENE 01:18:52 10° N
SJ 16-02 3.6 01:14:55 10° W 01:17:21 15° NW 01:19:47 10° NNW
Resurs 1-4 Rocket 3.4 01:13:18 10° NNE 01:18:05 34° E 01:22:51 10° SSE
Gbstr 26 Del rocket 4.5 01:14:36 10° WSW 01:21:16 75° NNW 01:29:00 10° ENE
Okean 2 Rocket 4.1 01:18:11 10° NNW 01:22:01 30° W 01:24:29 18° SW
DMSP B5D2-2 4.4 01:16:50 10° SSE 01:22:02 69° ENE 01:27:17 10° N
ALOS 3.7 01:19:53 10° NNE 01:23:57 31° E 01:28:00 10° SSE
SL-24 R/B - RUBIN 2 4.0 01:20:50 10° NW 01:25:16 48° WSW 01:30:07 10° SSE
USA 229 DEB 4.0 01:20:14 12° WSW 01:25:47 56° NW 01:32:34 10° NE
USA 229 4.0 01:20:17 12° WSW 01:25:49 57° NW 01:32:37 10° NE
MSX 4.1 01:20:41 10° N 01:26:21 61° WNW 01:31:03 15° SW
Cosmos 2228 2.9 01:23:30 10° NNW 01:27:45 79° W 01:31:56 10° S
NPP 3.7 01:24:19 10° N 01:29:42 72° WNW 01:34:16 15° SSW
Okean 1 Rocket 4.2 01:26:49 10° NNW 01:30:26 27° W 01:32:54 16° SW
NOSS 3 (A) 2.8 01:31:01 49° SW 01:31:20 86° SE 01:32:54 10° NE
Cosmos 968 Rocket 3.7 01:27:26 16° SW 01:31:33 63° WNW 01:36:46 10° NNE
ADEOS Rocket 3.2 01:29:10 10° N 01:34:55 52° WNW 01:39:35 14° SW
Cosmos 1437 Rocket 2.8 01:32:49 10° NNW 01:36:05 43° W 01:38:33 15° SSW
Cosmos 2292 Rocket 4.1 01:34:59 17° SW 01:37:28 39° WNW 01:41:40 10° N
Cosmos 1802 Rocket 4.2 01:31:33 10° N 01:38:00 83° E 01:44:27 10° S
Cosmos 1782 3.4 01:35:47 10° NNW 01:38:55 31° W 01:41:08 16° SSW
Cosmos 2297 Rocket 3.9 01:40:33 10° WNW 01:43:37 15° W 01:46:09 11° SW
Cosmos 1975 Rocket 3.0 01:40:37 13° SSW 01:44:24 73° W 01:48:42 10° N
USA 59 Rocket 2.7 01:43:32 10° N 01:45:49 18° NE 01:48:24 10° E
H-2A R/B 2.7 01:41:31 10° NNE 01:46:32 50° E 01:51:22 10° S
NOSS 3-2 (A) 4.2 01:41:32 10° NW 01:48:45 56° WSW 01:57:19 10° SSE
Cosmos 1862 3.5 01:46:02 15° SSW 01:48:46 45° WNW 01:52:13 10° N
IDEFIX/ARIANE 42P 3.4 01:45:12 10° N 01:49:58 37° WNW 01:54:30 11° SW
Aureole 3 Rocket 3.9 01:46:16 10° N 01:50:15 42° ENE 01:53:25 10° SSE
Envisat 3.1 01:45:21 10° NNE 01:50:27 82° ESE 01:55:31 10° SSW
Cosmos 1864 Rocket 4.5 01:44:50 10° NNW 01:50:58 78° W 01:57:07 10° S
Cosmos 2219 3.2 01:45:43 10° NNW 01:51:24 85° WSW 01:57:06 10° SSE
USA 308 3.8 01:50:23 10° W 01:53:44 24° SW 01:57:00 10° S
Cosmos 1980 Rocket 2.4 01:48:47 12° SW 01:53:58 66° WNW 01:59:40 10° NNE
Cosmos 2263 Rocket 2.6 01:49:13 10° NW 01:54:31 44° WSW 01:59:48 10° S
Cosmos 1741 Rocket 4.2 01:51:45 12° SSW 01:56:39 67° WNW 02:01:57 10° NNE
Cosmos 1850 Rocket 4.2 01:55:07 12° SW 01:59:54 60° WNW 02:05:03 10° NNE
SL-4 R/B 2.5 01:59:28 10° W 02:01:58 22° SW 02:04:27 10° SSE
Cosmos 2237 4.4 01:57:46 10° SSW 02:03:28 74° ESE 02:09:13 10° NNE
Cosmos 1459 Rocket 4.3 01:58:34 10° NNW 02:04:33 50° W 02:10:35 10° SSW
MOZ.5/SAFIR/RUBIN 5/SL-8 4.1 02:02:06 10° S 02:06:31 45° W 02:11:01 10° NNW
Cosmos 1844 Rocket 3.5 02:03:02 10° NNW 02:08:35 57° ENE 02:14:06 10° SE
Cosmos 2123 Rocket 4.2 02:04:16 10° SSW 02:10:31 61° WNW 02:16:46 10° N
Cosmos 2058 3.7 02:10:41 10° SW 02:14:16 34° WNW 02:17:54 10° N
ADEOS II 2.4 02:09:55 10° NNE 02:15:09 69° ESE 02:20:21 10° S
Cosmos 2360 Rocket 4.1 02:14:27 10° SSE 02:19:02 26° ESE 02:23:38 10° NE
SeaSat 1 3.2 02:15:31 10° SE 02:20:19 59° NE 02:25:09 10° NNW
CZ-2D R/B 2.2 02:15:51 10° NNE 02:21:17 82° WNW 02:26:37 10° SSW
ATLAS 3B R/B 3.8 02:16:04 10° WSW 02:23:28 46° NW 02:31:00 10° NE
Cosmos 2082 3.8 02:18:09 10° NW 02:23:41 57° WSW 02:29:13 10° S
Cosmos 158 Rocket 4.5 02:19:58 10° NW 02:24:23 35° WSW 02:28:45 10° SSW
